Regional Weather Roundup
Issued by NWS Cleveland, OH

Home | Current Version | Previous Version | Graphics & Text | Print | Product List | Glossary On
Versions: 1 2 3 4 5 6 7 8 9 10 11 12 13 14 15 16 17 18 19 20 21 22 23 24 25 26 27 28 29 30 31 32 33 34 35 36 37 38 39 40 41 42 43 44 45 46 47 48 49 50
000
ASUS41 KCLE 260810
RWRCLE
OHIO REGIONAL WEATHER ROUNDUP
NATIONAL WEATHER SERVICE CLEVELAND, OH
400 AM EDT FRI MAY 26 2017

NOTE: "FAIR" INDICATES FEW OR NO CLOUDS BELOW 12,000 FEET WITH NO
SIGNIFICANT WEATHER AND/OR OBSTRUCTIONS TO VISIBILITY.

OHZ001>008-015>018-024>027-034-035-043-044-260900-
   NORTHWEST OHIO

CITY           SKY/WX    TMP DP  RH WIND       PRES   REMARKS
DEFIANCE       MOCLDY    53  51  93 W8        29.75R
FINDLAY        MOCLDY    57  52  83 W12       29.72S
TOLEDO EXPRESS MOCLDY    56  55  97 W10       29.71R
TOLEDO EXEC    PTCLDY    58  56  93 W8        29.71R
LIMA           CLEAR     55  54  96 W13       29.75R
$$

OHZ009>014-019>023-028>033-038-089-260900-
   NORTHEAST OHIO

CITY           SKY/WX    TMP DP  RH WIND       PRES   REMARKS
CLE-HOPKINS    CLOUDY    60  57  89 W10       29.69R
CLE-LAKEFRONT  CLOUDY    57  55  93 W13       29.66R
CUY CO. ARPT   NOT AVBL
LORAIN-ELYRIA  CLOUDY    58  53  84 NW9       29.68R
ASHTABULA      CLOUDY    54  54 100 NW10G20   29.64R FOG
AKRON-CANTON   CLOUDY    59  55  87 W10       29.67R
WOOSTER        CLOUDY    58  56  93 W9        29.69R
MANSFIELD      CLOUDY    58  57  97 W9        29.71R
YOUNGSTOWN     DRIZZLE   57  54  89 W10       29.64R FOG
$$

OHZ042-051>053-060>062-070>072-077>081-260900-
  SOUTHWEST OHIO

CITY           SKY/WX    TMP DP  RH WIND       PRES   REMARKS
CINC-COVINGTON CLEAR     54  52  93 SW5       29.83R
CINC-LUNKEN    CLEAR     56  54  93 SW5       29.83R
HAMILTON       CLEAR     55  55 100 SW5       29.82S
DAYTON         CLEAR     57  54  89 W14       29.79S
WRIGHT-PAT AFB PTCLDY    57  57 100 SW8       29.78S
DAYTON GENERAL CLEAR     57  54  89 SW7       29.79S
WILMINGTON     CLEAR     57  56  96 W15       29.80R
$$

OHZ036-037-039>041-045>050-054>059-063>069-073>076-082>088-260900-
  CENTRAL AND SOUTHEAST OHIO

CITY           SKY/WX    TMP DP  RH WIND       PRES   REMARKS
COLUMBUS       MOCLDY    59  56  89 W13       29.75R
OSU AIRPORT    PTCLDY    57  56  96 W10       29.75R
BOLTON FIELD   PTCLDY    57  55  91 W12       29.77R
RICKENBACK AFB PTCLDY    58  55  91 W12G18    29.76R
NEWARK         CLOUDY    59  55  87 W9        29.74R
MARION         CLOUDY    57  54  89 W10       29.74R
LANCASTER      CLOUDY    62  55  77 W9        29.76R
ZANESVILLE     CLOUDY    60  56  86 W8        29.73R
NEW PHILLY     NOT AVBL
$$




USA.gov is the U.S. government's official web portal to all federal, state and local government web resources and services.